This is the latest recevied weather packets stored in our database for station/object SP9EPI-13. If no packets are shown the sender has not sent any weather packets the latest 10 day(s).
| Time | Temp. | Humidity | Pressure | Rain* | Wind** | Luminosity | Snow |
|---|---|---|---|---|---|---|---|
| 1777820400 | 27.78° C | 24% | 1011.5 hPa | - | - | - | - |
| 1777819800 | 27.22° C | 23% | 1011.5 hPa | - | - | - | - |
| 1777819200 | 27.22° C | 26% | 1011.5 hPa | - | - | - | - |
| 1777818600 | 27.22° C | 24% | 1011.5 hPa | - | - | - | - |
| 1777818001 | 27.22° C | 22% | 1011.5 hPa | - | - | - | - |
| 1777817401 | 27.22° C | 24% | 1011.8 hPa | - | - | - | - |
| 1777816800 | 27.78° C | 23% | 1011.8 hPa | - | - | - | - |
| 1777816201 | 27.78° C | 23% | 1012.1 hPa | - | - | - | - |
| 1777815601 | 26.11° C | 24% | 1012.1 hPa | - | - | - | - |
| 1777815001 | 27.78° C | 25% | 1012.1 hPa | - | - | - | - |
| 1777814401 | 27.22° C | 24% | 1012.1 hPa | - | - | - | - |
| 1777813800 | 27.22° C | 25% | 1012.5 hPa | - | - | - | - |
| 1777813201 | 27.78° C | 24% | 1012.5 hPa | - | - | - | - |
| 1777812601 | 27.22° C | 26% | 1012.5 hPa | - | - | - | - |
| 1777812001 | 27.22° C | 25% | 1013.2 hPa | - | - | - | - |
| 1777811400 | 27.22° C | 26% | 1013.2 hPa | - | - | - | - |
| 1777810800 | 27.22° C | 25% | 1013.2 hPa | - | - | - | - |
| 1777810200 | 26.11° C | 25% | 1013.2 hPa | - | - | - | - |
| 1777809601 | 27.22° C | 26% | 1013.5 hPa | - | - | - | - |
| 1777809001 | 26.11° C | 25% | 1013.5 hPa | - | - | - | - |
| 1777808400 | 27.22° C | 25% | 1013.8 hPa | - | - | - | - |
| 1777807800 | 25° C | 25% | 1013.8 hPa | - | - | - | - |
| 1777807200 | 26.11° C | 26% | 1013.8 hPa | - | - | - | - |
| 1777806600 | 26.11° C | 28% | 1014.2 hPa | - | - | - | - |
| 1777806000 | 26.11° C | 28% | 1014.2 hPa | - | - | - | - |
* Rain since midnight (hover to see other rain measurements)
** Current wind speed in m/s (hover to see current wind gust speed)